TimeEDT,TemperatureF,Dew PointF,Humidity,Sea Level PressureIn,VisibilityMPH,Wind Direction,Wind SpeedMPH,Gust SpeedMPH,PrecipitationIn,Events,Conditions,WindDirDegrees,DateUTC
12:54 AM,48.0,43.0,83,30.02,10.0,Calm,Calm,-,N/A,,Clear,0,2012-10-07 04:54:00
1:54 AM,50.0,43.0,77,30.04,10.0,NW,3.5,-,N/A,,Clear,320,2012-10-07 05:54:00
3:54 AM,45.0,42.1,90,30.04,10.0,Calm,Calm,-,N/A,,Clear,0,2012-10-07 07:54:00
4:54 AM,48.0,43.0,83,30.07,10.0,WNW,3.5,-,N/A,,Clear,290,2012-10-07 08:54:00
5:54 AM,45.0,42.1,90,30.06,10.0,Calm,Calm,-,N/A,,Partly Cloudy,0,2012-10-07 09:54:00
6:54 AM,43.0,41.0,93,30.09,10.0,Calm,Calm,-,N/A,,Unknown,0,2012-10-07 10:54:00
7:54 AM,46.0,44.1,93,30.10,10.0,Calm,Calm,-,N/A,,Unknown,0,2012-10-07 11:54:00
8:54 AM,48.9,44.1,83,30.11,10.0,Calm,Calm,-,N/A,,Unknown,0,2012-10-07 12:54:00
9:54 AM,50.0,45.0,83,30.12,10.0,Calm,Calm,-,N/A,,Overcast,0,2012-10-07 13:54:00
10:54 AM,52.0,44.1,74,30.13,10.0,NW,4.6,-,N/A,,Overcast,310,2012-10-07 14:54:00
11:54 AM,51.1,44.1,77,30.13,7.0,Calm,Calm,-,0.03,Rain,Light Rain,0,2012-10-07 15:54:00
12:54 PM,51.1,42.1,71,30.10,10.0,Calm,Calm,-,0.03,Rain,Light Rain,0,2012-10-07 16:54:00
1:54 PM,50.0,44.1,80,30.08,10.0,Calm,Calm,-,0.01,Rain,Light Rain,0,2012-10-07 17:54:00
2:54 PM,51.1,43.0,74,30.06,10.0,Calm,Calm,-,0.00,,Overcast,0,2012-10-07 18:54:00
3:54 PM,51.1,44.1,77,30.04,10.0,Calm,Calm,-,N/A,,Overcast,0,2012-10-07 19:54:00
4:54 PM,51.1,46.0,83,30.03,10.0,Calm,Calm,-,0.00,,Overcast,0,2012-10-07 20:54:00
5:54 PM,51.1,45.0,80,30.03,10.0,Calm,Calm,-,N/A,,Overcast,0,2012-10-07 21:54:00
6:06 PM,51.8,46.4,82,30.04,10.0,Calm,Calm,-,N/A,,Overcast,0,2012-10-07 22:06:00
6:15 PM,51.8,46.4,82,30.04,10.0,Calm,Calm,-,N/A,,Overcast,0,2012-10-07 22:15:00
6:54 PM,51.1,46.9,86,30.07,10.0,Calm,Calm,-,N/A,,Overcast,0,2012-10-07 22:54:00
7:54 PM,48.9,46.0,90,30.09,8.0,Variable,4.6,-,0.04,Rain,Light Rain,0,2012-10-07 23:54:00
8:54 PM,48.9,46.0,90,30.13,6.0,Calm,Calm,-,0.01,Rain,Light Rain,0,2012-10-08 00:54:00
9:54 PM,48.9,46.0,90,30.14,10.0,West,3.5,-,0.01,,Overcast,270,2012-10-08 01:54:00
10:54 PM,48.9,46.9,93,30.14,10.0,West,3.5,-,N/A,,Overcast,280,2012-10-08 02:54:00
11:54 PM,46.0,44.1,93,30.13,2.5,Calm,Calm,-,N/A,,Clear,0,2012-10-08 03:54:00